Regional Weather Roundup
Issued by NWS Little Rock, AR

Home | Current Version | Previous Version | Graphics & Text | Print | Product List | Glossary On
Versions: 1 2 3 4 5 6 7 8 9 10 11 12 13 14 15 16 17 18 19 20 21 22 23 24 25 26 27 28 29 30 31 32 33 34 35 36 37 38 39 40 41 42 43 44 45 46 47 48 49 50
000
ASUS44 KLZK 232005
RWRLZK

WEATHER ROUNDUP FOR ARKANSAS
NATIONAL WEATHER SERVICE LITTLE ROCK AR
300 PM CDT FRI JUN 23 2017

NOTE: "FAIR" INDICATES FEW OR NO CLOUDS BELOW 12,000 FEET WITH NO
SIGNIFICANT WEATHER AND/OR OBSTRUCTIONS TO VISIBILITY.

ARZ001-003-010-029-232100-
NORTHWEST ARKANSAS

CITY           SKY/WX    TMP DP  RH WIND       PRES   REMARKS
FAYETTEVILLE   CLOUDY    73  69  87 N9G20     29.88R
FORT SMITH     SUNNY     94  76  55 W13G20    29.79S HX 106
HARRISON       LGT RAIN  68  68 100 CALM      29.90R
BENTONVILLE    CLOUDY    72  70  94 N15G22    29.90S
ROGERS         CLOUDY    71  69  93 N10       29.91R
SILOAM SPGS    CLOUDY    79  68  69 N22G30    29.89R
HIGHFILL       PTSUNNY   77  70  79 N16G24    29.90R
SPRINGDALE     CLOUDY    75  70  83 N14G23    29.91R
$$

ARZ004-005-016-232100-
NORTH CENTRAL ARKANSAS

CITY           SKY/WX    TMP DP  RH WIND       PRES   REMARKS
BATESVILLE     MOSUNNY   90  75  62 W8        29.77R HX 100
FLIPPIN        CLOUDY    70  63  78 W5        29.84F
MTN HOME       LGT RAIN  69  67  93 E9G17     29.83F
$$

ARZ040-041-232100-
WEST CENTRAL ARKANSAS

CITY           SKY/WX    TMP DP  RH WIND       PRES   REMARKS
MENA           MOSUNNY   91  79  66 W9        29.85S HX 107
MOUNT IDA      CLOUDY    90  74  59 VRB3      29.81S HX  99
$$

ARZ009-017-025-026-028-232100-
NORTHEAST ARKANSAS

CITY           SKY/WX    TMP DP  RH WIND       PRES   REMARKS
CORNING        LGT RAIN  90  75  62 NW12      29.75R HX 100
JONESBORO      MOSUNNY   88  76  67 W14       29.76R HX  99
WALNUT RIDGE   CLOUDY    90  72  55 NW5       29.74R HX  96
BLYTHEVILLE    CLOUDY    84  77  79 W8        29.75R HX  94
$$

ARZ022-023-033-042-044-232100-
CENTRAL ARKANSAS

CITY           SKY/WX    TMP DP  RH WIND       PRES   REMARKS
LITTLE ROCK    CLOUDY    88  77  69 SW10      29.79R HX 100
N LITTLE ROCK    N/A     87  78  76 W6        29.78R HX 100
JACKSONVILLE   CLOUDY    89  79  71 W12       29.78R HX 104
CONWAY           N/A     91  77  62 SW9       29.76F HX 105
SEARCY         PTSUNNY   89  79  72 MISG        N/A  HX 104
HOT SPRINGS    PTSUNNY   92  76  59 SW6       29.80S HX 104
RUSSELLVILLE     N/A     91  75  59 W8        29.78S HX 101
CLINTON        FAIR      88  77  70 SW6       29.79R HX 100
$$

ARZ036-232100-
EAST ARKANSAS

CITY           SKY/WX    TMP DP  RH WIND       PRES   REMARKS
WEST MEMPHIS   CLOUDY    82  77  84 SW6       29.76R HX  90
$$

ARZ050-053-066-070-073-232100-
SOUTHWEST ARKANSAS

CITY           SKY/WX    TMP DP  RH WIND       PRES   REMARKS
ARKADELPHIA    FAIR      89  78  70 SW7       29.80S HX 103
CAMDEN         CLOUDY    86  75  70 SW8       29.81F HX  95
TEXARKANA      PTSUNNY   90  75  61 SW8       29.82S HX 100
EL DORADO      CLOUDY    84  77  79 SW8       29.83F HX  94
DE QUEEN       PTSUNNY   93  76  57 SW6       29.79S HX 105
$$

ARZ056-057-069-232100-
SOUTHEAST ARKANSAS

CITY           SKY/WX    TMP DP  RH WIND       PRES   REMARKS
PINE BLUFF     CLOUDY    83  78  85 SW9       29.80S HX  93
STUTTGART      CLOUDY   N/A N/A N/A SW8       29.79S
MONTICELLO     CLOUDY    81  76  84 SW7       29.82F HX  87

$$





USA.gov is the U.S. government's official web portal to all federal, state and local government web resources and services.